Miscellaneous Local Product
Issued by NWS Hastings, NE

Home | Current Version | Previous Version | Text Only | Print | Product List | Glossary Off
Versions: 1 2 3 4 5 6 7 8 9 10 11 12 13 14 15 16 17 18 19 20 21 22 23 24 25 26 27 28 29 30 31 32 33 34 35 36 37 38 39 40 41 42 43 44 45 46 47 48 49 50

000
AXUS43 KGID 220502
MISGRI

GID CWA HOURLY WEATHER ROUNDUP
NATIONAL WEATHER SERVICE HASTINGS NE
1200 AM CDT FRI AUG 22 2014

NOTE: "FAIR" INDICATES FEW OR NO CLOUDS BELOW 12,000 FEET WITH NO
SIGNIFICANT WEATHER AND/OR OBSTRUCTIONS TO VISIBILITY.

...SOUTH CENTRAL NEBRASKA...

CITY           SKY/WX    TMP DP  RH WIND       PRES   REMARKS
GRAND ISLAND   PTCLDY    76  70  82 S7        29.92R
HASTINGS       MOCLDY    75  66  73 SE6       29.93R
KEARNEY        PTCLDY    73  72  94 E3        29.93R
ORD            CLEAR     73  68  84 CALM      29.91S
YORK           CLOUDY    73 N/A N/A S3        29.92R
AURORA         CLOUDY    73  73 100 SE5       29.94R
LEXINGTON      CLEAR     73  71  92 E3        29.94R
HOLDREGE       CLEAR     75  72  89 E6        29.93R
HEBRON         LGT RAIN  76  64  66 S6        29.92F

...NEBRASKA PANHANDLE...

CITY           SKY/WX    TMP DP  RH WIND       PRES   REMARKS
CHADRON        MOCLDY    75  49  39 SW10      29.96R
ALLIANCE       PTCLDY    69  51  52 W6        30.04R
SCOTTSBLUFF    MOCLDY    71  53  52 CALM      30.04S
SIDNEY         MOCLDY    68  57  68 SW5       30.07S

...WESTERN AND NORTH CENTRAL NEBRASKA...

CITY           SKY/WX    TMP DP  RH WIND       PRES   REMARKS
VALENTINE      CLEAR     74  58  57 SE9       29.97R
AINSWORTH      PTCLDY    68  63  83 SE3       29.97S
ONEILL         CLEAR     71  66  85 NE5       29.93S
BROKEN BOW     CLEAR     69  65  86 N3        29.95R
IMPERIAL       PTCLDY    71  63  75 E5        29.99S
NORTH PLATTE   CLEAR     67  62  84 E3        29.96F
MCCOOK         CLEAR     72  66  81 NE6       29.95R

...EASTERN NEBRASKA...

CITY           SKY/WX    TMP DP  RH WIND       PRES   REMARKS
NORFOLK        MOCLDY    77  73  87 S3        29.89F
SO SIOUX CITY  PTCLDY    77  74  90 CALM      29.87R
TEKAMAH        CLOUDY    79  71  76 SW5       29.86F
COLUMBUS       CLOUDY    52 N/A N/A CALM      29.90R
ALBION         PTCLDY    75  70  84 CALM      29.91S
OMAHA EPPLEY   CLOUDY    81  77  88 NW15      29.88R THUNDER
OFFUTT AFB     CLOUDY    80  80 100 CALM      29.86R
MILLARD        CLOUDY    83  75  75 NW9       29.88R THUNDER HX  90
LINCOLN        CLOUDY    78  74  87 N7        29.90R
NEBRASKA CITY  CLOUDY    79  79 100 CALM      29.87R
BEATRICE       CLOUDY    78  76  94 CALM      29.90R
FALLS CITY     MOCLDY    84  71  65 S6        29.86R

...NORTHERN KANSAS...

CITY           SKY/WX    TMP DP  RH WIND       PRES   REMARKS
GOODLAND       PTCLDY    69  55  60 CALM      30.01R
HILL CITY      CLEAR     76  68  76 E5        29.90R
NORTON         CLEAR     75  68  78 CALM      29.92R
PHILLIPSBURG   CLEAR     75  64  69 NE6       29.89R
SMITH CENTER   PTCLDY    75  66  73 E12       29.90R
HAYS           CLEAR     81  64  57 SE10      29.89S
RUSSELL        PTCLDY    86  66  51 SE10      29.89R
CONCORDIA      LGT RAIN  72  68  87 S13       29.89F
SALINA         CLOUDY    89  68  49 E12G20    29.92R HX  93
TOPEKA         PTCLDY    86  74  67 S13G22    29.90R HX  94



USA.gov is the U.S. government's official web portal to all federal, state and local government web resources and services.